User: anonymous   Login
Location: Theydon Bois
(51.6750°N, 0.1050°E)
Time: 05:07:52
(UTC+01:00)
Language:

Cosmos 2123 Rocket - Orbit

View from above orbital plane
View from above orbital plane
View from above satellite
View from above satellite

Ground track
Ground track

The orbit data is extracted from the following two-line orbital elements,

1 21090U 91007B   18175.57245934 +.00000071 +00000-0 +56669-4 0  9994
2 21090 082.9214 321.2824 0022016 074.2773 286.0810 13.76361450374941
Epoch (UTC): 24 June 2018 13:44:20
Eccentricity: 0.0022016
inclination: 82.9214°
perigee height: 960 km
apogee height: 993 km
right ascension of ascending node: 321.2824°
argument of perigee: 74.2773°
revolutions per day: 13.76361450
mean anomaly at epoch: 286.0810°
orbit number at epoch: 37494

The dashed part of the orbit path shows where the satellite is in the earth's shadow,  

DLR